[[{"header":{"parameterUnit":"m.s-1","parameterCategory":2,"la1":30.2991,"la2":30.254,"lo1":-89.0895,"lo2":-89.0444,"dy":0.0017,"dx":0.0017,"nx":28,"ny":28,"refTime":"2025-02-07T09:00:00:Z","depth":"0","parameterNumber":2,"parameterNumberName":"U-component_of_CURRENTS"},"data":[0,0,0,0,0,0,0,0,0,0,0,0,0,0,0,0,0,0,0,0,0,0,0,0,0,0,0,0,0,0,0,0,0,0,0,0,0,0,0,0,0,0,0,0,0,0,0,0,0,0,0,0,0,0,0,0,0,0,-0.2365,-0.2366,0,-0.2447,-0.2447,-0.2448,-0.2476,-0.2476,-0.2476,-0.2476,-0.2482,-0.2482,-0.2482,0,0,0,0,0,0,0,0,0,0,0,0,0,-0.2224,-0.2226,-0.2365,-0.2366,-0.2368,-0.2446,-0.2447,-0.2448,-0.2476,-0.2476,-0.2476,-0.2476,-0.2482,-0.2482,-0.2482,0,0,0,0,0,0,0,0,0,0,0,0,0,-0.229,-0.2227,-0.2365,-0.2394,-0.2397,-0.2446,-0.2447,-0.2448,-0.2476,-0.2476,-0.2476,-0.2476,-0.2482,-0.2482,-0.2482,-0.2485,0,0,-0.2483,-0.2483,0,0,0,0,0,0,0,0,-0.2287,-0.2295,-0.2388,-0.2392,-0.2396,-0.2454,-0.24,-0.2458,-0.2476,-0.2442,-0.2476,-0.2476,-0.2468,-0.2469,-0.2481,-0.2485,-0.2485,-0.2483,-0.2484,-0.2484,-0.2484,0,0,0,0,0,0,0,-0.2282,-0.2292,-0.2394,-0.239,-0.2394,-0.2399,-0.2408,-0.2411,-0.245,-0.2445,-0.2448,-0.2463,-0.2469,-0.2481,-0.2481,-0.2485,-0.2483,-0.2484,-0.2484,-0.2484,-0.2459,-0.2458,0,0,0,0,0,0,-0.228,-0.2288,-0.2391,-0.2397,-0.2344,-0.2402,-0.2412,-0.2433,-0.2452,-0.2457,-0.2463,-0.2464,-0.248,-0.2481,-0.2481,-0.2477,-0.2484,-0.2484,-0.2484,-0.246,-0.2459,-0.2458,0,0,0,0,0,0,-0.2276,-0.2288,-0.2388,-0.2346,-0.236,-0.2405,-0.2427,-0.2434,-0.2447,-0.2467,-0.2469,-0.2469,-0.248,-0.2481,-0.2482,-0.2477,-0.2484,-0.2484,-0.2461,-0.2459,-0.2458,-0.2472,0,0,0,0,0,0,-0.2272,-0.2287,-0.2293,-0.2346,-0.2362,-0.2412,-0.2428,-0.2436,-0.2458,-0.246,-0.2473,-0.2474,-0.248,-0.2481,-0.2482,-0.2478,-0.2485,-0.2462,-0.246,-0.2459,-0.2473,-0.2472,-0.2471,0,0,0,0,0,-0.2267,-0.2283,-0.2293,-0.2306,-0.2372,-0.2413,-0.242,-0.245,-0.2458,-0.2461,-0.247,-0.2473,-0.2471,-0.2481,-0.2482,-0.2478,-0.2462,-0.246,-0.2459,-0.2473,-0.2472,-0.2471,0,0,0,0,0,0,-0.2228,-0.2289,-0.2301,-0.2335,-0.2367,-0.2418,-0.2428,-0.2448,-0.2461,-0.2459,-0.2472,-0.2473,-0.2469,-0.2467,-0.2478,-0.2462,-0.2463,-0.2461,-0.2474,-0.2472,-0.2471,-0.2478,-0.2485,0,0,0,0,0,-0.2222,-0.2245,-0.23,-0.2322,-0.2339,-0.2381,-0.2399,-0.2421,-0.2445,-0.2452,-0.2461,-0.2462,-0.2462,-0.2463,-0.246,-0.2459,-0.2451,-0.2451,-0.245,-0.2449,-0.2453,-0.2439,-0.2438,-0.2452,-0.2452,-0.2452,0,0,-0.2211,-0.2248,-0.226,-0.2314,-0.234,-0.2371,-0.2391,-0.242,-0.244,-0.2448,-0.2462,-0.2459,-0.2459,-0.2457,-0.2454,-0.2457,-0.2437,-0.2447,-0.2447,-0.2451,-0.2437,-0.2436,-0.2435,-0.245,-0.245,-0.2451,0,0,-0.2208,-0.2235,-0.2255,-0.2284,-0.233,-0.2357,-0.2365,-0.2411,-0.2423,-0.2439,-0.2445,-0.2443,-0.2445,-0.2449,-0.245,-0.2439,-0.2431,-0.2427,-0.2434,-0.242,-0.2419,-0.2419,-0.2398,-0.2395,-0.2429,-0.2429,-0.2429,0,-0.2191,-0.223,-0.2263,-0.2294,-0.2318,-0.2351,-0.2376,-0.2397,-0.2434,-0.2441,-0.2439,-0.2442,-0.2444,-0.2448,-0.2445,-0.2439,-0.2424,-0.2445,-0.2421,-0.242,-0.2419,-0.2398,-0.2395,-0.2429,-0.2429,-0.2429,-0.2429,0,-0.2209,-0.2238,-0.2252,-0.23,-0.2326,-0.2351,-0.2391,-0.2405,-0.2418,-0.2438,-0.2438,-0.244,-0.2442,-0.2437,-0.2442,-0.2434,-0.2422,-0.2422,-0.243,-0.2419,-0.2397,-0.2393,-0.243,-0.243,-0.243,-0.2429,0,0,-0.2173,-0.225,-0.2251,-0.2275,-0.2331,-0.2354,-0.2382,-0.2415,-0.243,-0.2441,-0.2451,-0.2451,-0.2448,-0.2448,-0.2446,-0.2438,-0.242,-0.2428,-0.2427,-0.2418,-0.238,-0.2305,-0.2295,-0.2414,-0.2414,-0.2414,-0.2364,0,-0.2172,-0.2224,-0.2264,-0.2301,-0.2329,-0.2368,-0.2392,-0.2422,-0.2438,-0.2451,-0.245,-0.2454,-0.2453,-0.245,-0.2443,-0.2432,-0.2412,-0.2433,-0.2383,-0.2381,-0.2326,-0.2289,-0.2197,-0.214,-0.2361,-0.2361,-0.236,0,-0.2171,-0.2207,-0.2247,-0.2307,-0.2321,-0.2344,-0.238,-0.2408,-0.2437,-0.2449,-0.2454,-0.2456,-0.2456,-0.2447,-0.2422,-0.2434,-0.2404,-0.2389,-0.2386,-0.2312,-0.23,-0.2187,-0.2125,-0.211,-0.2355,-0.2355,-0.2356,0,-0.2123,-0.2192,-0.2219,-0.2241,-0.2313,-0.2327,-0.2357,-0.2397,-0.2417,-0.2442,-0.2452,-0.2454,-0.245,-0.2425,-0.2399,-0.2408,-0.2357,-0.2367,-0.2267,-0.2262,-0.2171,-0.2158,-0.2097,-0.2328,-0.2328,-0.2328,-0.2328,0,-0.2105,-0.2123,-0.2197,-0.2211,-0.2235,-0.2294,-0.2316,-0.235,-0.2391,-0.2402,-0.2439,-0.2437,-0.2442,-0.2419,-0.2392,-0.2313,-0.2348,-0.2256,-0.2239,-0.217,-0.2158,-0.213,-0.216,-0.2326,-0.2327,-0.2327,-0.2327,0,-0.2043,-0.2097,-0.2129,-0.2196,-0.2213,-0.2225,-0.2289,-0.2303,-0.2357,-0.2372,-0.2378,-0.2419,-0.2389,-0.2376,-0.2333,-0.2292,-0.2191,-0.2193,-0.2107,-0.208,-0.1966,-0.1999,-0.1934,-0.1877,-0.2074,-0.2072,-0.207,0,-0.2015,-0.2026,-0.2095,-0.2105,-0.213,-0.2165,-0.2184,-0.2263,-0.2283,-0.2347,-0.2342,-0.2341,-0.2305,-0.2228,-0.2158,-0.2077,-0.2094,-0.1953,-0.1949,-0.193,-0.1957,-0.1993,-0.1954,-0.1836,-0.1832,-0.1829,-0.1827,0,-0.1942,-0.1968,-0.1991,-0.2019,-0.204,-0.2073,-0.211,-0.2128,-0.2211,-0.2225,-0.2226,-0.2204,-0.2145,-0.2027,-0.1942,-0.1886,-0.1907,-0.1887,-0.189,-0.1775,-0.1788,-0.1735,-0.1906,-0.18,-0.1803,-0.1805,-0.1806,-0.1807,-0.1867,-0.1865,-0.1894,-0.1908,-0.1938,-0.1951,-0.1934,-0.1988,-0.1999,-0.1992,-0.2053,-0.1986,-0.1939,-0.1798,-0.1737,-0.1623,-0.1693,-0.1583,-0.1629,-0.1669,-0.16,-0.1704,-0.1568,-0.1569,-0.157,-0.1571,-0.1572,0,-0.1756,-0.1766,-0.1778,-0.1794,-0.1784,-0.1836,-0.1853,-0.1801,-0.1766,-0.18,-0.1767,-0.1722,-0.1608,-0.1578,-0.148,-0.1401,-0.1376,-0.1378,-0.1418,-0.1391,-0.1486,-0.1459,-0.1264,-0.1264,-0.1264,-0.1264,-0.1264,-0.1264,-0.1696,-0.1662,-0.1672,-0.1622,-0.1634,-0.1561,-0.1539,-0.147,-0.1452,-0.138,-0.138,-0.1391,-0.1423,-0.1528,-0.1415,-0.1332,-0.1313,-0.1266,-0.13,-0.1391,-0.1414,-0.1437,-0.1417,-0.1216,-0.1216,-0.1143,-0.1143,-0.1143]},{"header":{"parameterUnit":"m.s-1","parameterCategory":2,"la1":30.2991,"la2":30.254,"lo1":-89.0895,"lo2":-89.0444,"dy":0.0017,"dx":0.0017,"nx":28,"ny":28,"refTime":"2025-02-07T09:00:00:Z","depth":"0","parameterNumber":3,"parameterNumberName":"V-component_of_CURRENTS"},"data":[0,0,0,0,0,0,0,0,0,0,0,0,0,0,0,0,0,0,0,0,0,0,0,0,0,0,0,0,0,0,0,0,0,0,0,0,0,0,0,0,0,0,0,0,0,0,0,0,0,0,0,0,0,0,0,0,0,0,0.0008,0.001,0,0.0127,0.0129,0.013,0.0237,0.0238,0.024,0.0241,0.0404,0.0407,0.041,0,0,0,0,0,0,0,0,0,0,0,0,0,-0.0066,-0.0065,0.0008,0.001,0.0011,0.0127,0.0129,0.0131,0.0237,0.0239,0.024,0.0241,0.0403,0.0407,0.0411,0,0,0,0,0,0,0,0,0,0,0,0,0,0.0003,-0.0065,0.0008,0.0077,0.0084,0.0127,0.0129,0.0131,0.0237,0.0239,0.024,0.0242,0.0401,0.0406,0.0411,0.041,0,0,0.0426,0.0429,0,0,0,0,0,0,0,0,-0.0001,0.0006,0.0065,0.0072,0.008,0.0167,0.0163,0.0226,0.0237,0.0181,0.0241,0.0242,0.0326,0.0337,0.0359,0.0417,0.0424,0.0427,0.043,0.0432,0.0434,0,0,0,0,0,0,0,-0.0006,0.0002,0.0058,0.0066,0.0075,0.0122,0.0133,0.0176,0.0245,0.0186,0.0193,0.0203,0.0331,0.0353,0.0363,0.0427,0.0427,0.0431,0.0434,0.0436,0.0483,0.0481,0,0,0,0,0,0,-0.003,-0.0003,0.0054,0.0061,0.004,0.0122,0.0134,0.0139,0.0244,0.0261,0.0201,0.0207,0.0344,0.0357,0.0369,0.0377,0.0432,0.0437,0.044,0.0484,0.0482,0.048,0,0,0,0,0,0,-0.0032,-0.0026,0.0049,0.003,0.0043,0.0121,0.0126,0.0141,0.0164,0.0255,0.0274,0.0209,0.0346,0.0362,0.0396,0.0384,0.0439,0.0444,0.0486,0.0484,0.0481,0.0389,0,0,0,0,0,0,-0.0035,-0.0028,-0.0035,0.0028,0.0043,0.0061,0.0125,0.0142,0.0166,0.0176,0.0267,0.0285,0.0348,0.0387,0.04,0.0392,0.0447,0.0489,0.0485,0.0482,0.0394,0.0383,0.0374,0,0,0,0,0,-0.0038,-0.0054,-0.0036,-0.0029,0.0032,0.006,0.0071,0.0134,0.0165,0.0163,0.0223,0.0282,0.0376,0.039,0.0406,0.0398,0.049,0.0486,0.0482,0.0399,0.0386,0.0374,0,0,0,0,0,0,-0.0085,-0.0043,-0.0022,-0.0023,0.0008,0.0077,0.0084,0.012,0.0166,0.0177,0.0264,0.0284,0.0308,0.0353,0.0367,0.0397,0.044,0.0439,0.0371,0.036,0.035,0.0349,0.0452,0,0,0,0,0,-0.0104,-0.0104,-0.0058,-0.006,-0.0049,0.0011,0.003,0.0067,0.0117,0.014,0.0201,0.0259,0.0301,0.033,0.0373,0.0391,0.0444,0.0392,0.0382,0.0373,0.038,0.0431,0.0427,0.0467,0.0467,0.0467,0,0,-0.012,-0.0099,-0.0098,-0.0071,-0.0038,-0.0032,0.0027,0.0045,0.0057,0.0148,0.0178,0.0225,0.0294,0.0317,0.0332,0.0358,0.0386,0.0368,0.036,0.0372,0.0426,0.0423,0.042,0.0465,0.0465,0.0465,0,0,-0.0159,-0.0141,-0.0155,-0.0138,-0.0107,-0.0071,-0.0075,-0.002,0.0011,0.0036,0.0102,0.0138,0.0203,0.0255,0.0289,0.0244,0.0327,0.0249,0.021,0.0258,0.0256,0.0255,0.0309,0.0314,0.0249,0.0249,0.0249,0,-0.0182,-0.0193,-0.0156,-0.0166,-0.0156,-0.0097,-0.0109,-0.0074,-0.0015,0.0005,0.0031,0.0123,0.0178,0.022,0.0206,0.0226,0.0267,0.0254,0.0248,0.0248,0.0248,0.0304,0.031,0.0244,0.0245,0.0245,0.0246,0,-0.0229,-0.0237,-0.0246,-0.0237,-0.0225,-0.0228,-0.018,-0.0163,-0.0123,-0.0079,-0.0038,0.0034,0.0096,0.0107,0.015,0.0172,0.0203,0.0226,0.0283,0.0239,0.03,0.0308,0.0237,0.0239,0.024,0.0242,0,0,-0.0276,-0.028,-0.0282,-0.0293,-0.0264,-0.0259,-0.0246,-0.0215,-0.0199,-0.0145,-0.0116,-0.0052,-0.0005,0.0034,0.0089,0.013,0.0163,0.0172,0.0177,0.0234,0.0274,0.0315,0.0329,0.0184,0.0185,0.0186,0.0313,0,-0.0323,-0.0366,-0.0346,-0.0376,-0.0393,-0.0342,-0.0334,-0.0296,-0.0248,-0.0206,-0.0127,-0.0081,-0.0034,-0.0006,0.0041,0.0136,0.0181,0.0127,0.0302,0.0307,0.0357,0.0339,0.0371,0.0489,0.0322,0.0323,0.0324,0,-0.0374,-0.0396,-0.0441,-0.0448,-0.0448,-0.0452,-0.0422,-0.0406,-0.0332,-0.0293,-0.0228,-0.0156,-0.0078,-0.0039,0.011,0.0072,0.0162,0.0235,0.0242,0.0324,0.0364,0.0507,0.0511,0.0654,0.0338,0.0337,0.0336,0,-0.0432,-0.046,-0.05,-0.0504,-0.05,-0.0503,-0.049,-0.0434,-0.0416,-0.034,-0.0312,-0.0206,-0.0141,-0.0027,0.0132,0.012,0.0301,0.0309,0.0434,0.0438,0.0524,0.0534,0.0699,0.041,0.041,0.0409,0.0409,0,-0.0492,-0.0522,-0.0532,-0.0557,-0.0594,-0.0562,-0.0574,-0.0542,-0.0486,-0.046,-0.036,-0.0303,-0.0136,-0.0006,0.0122,0.0313,0.0301,0.0434,0.0475,0.049,0.0495,0.0671,0.0723,0.0414,0.0413,0.0412,0.0411,0,-0.0552,-0.0558,-0.0607,-0.0622,-0.0626,-0.0651,-0.0639,-0.0637,-0.0578,-0.0537,-0.0514,-0.0365,-0.0189,-0.0012,0.0198,0.0311,0.0577,0.0549,0.0559,0.0598,0.0827,0.087,0.1082,0.1171,0.07,0.0702,0.0703,0,-0.0587,-0.0621,-0.0665,-0.0695,-0.0705,-0.0728,-0.0738,-0.0692,-0.0678,-0.0566,-0.0545,-0.0369,-0.0223,0.0102,0.0331,0.0574,0.068,0.074,0.0721,0.0854,0.0933,0.0963,0.1023,0.08,0.0802,0.0804,0.0806,0,-0.0653,-0.0666,-0.0707,-0.0773,-0.0802,-0.0825,-0.0828,-0.0826,-0.075,-0.0693,-0.0564,-0.0436,-0.0113,0.0189,0.05,0.0646,0.0849,0.0783,0.0928,0.1032,0.1071,0.117,0.0703,0.0822,0.082,0.0819,0.0818,0.0817,-0.0691,-0.0738,-0.0788,-0.0845,-0.088,-0.0895,-0.0863,-0.0836,-0.0786,-0.0626,-0.0573,-0.0325,0.0072,0.0522,0.0687,0.104,0.1002,0.1143,0.1189,0.1209,0.1286,0.0851,0.1005,0.1005,0.1004,0.1004,0.1003,0,-0.0735,-0.0784,-0.0852,-0.0904,-0.0935,-0.0932,-0.0893,-0.0797,-0.0681,-0.0565,-0.0412,-0.0002,0.0399,0.0772,0.1235,0.1432,0.1474,0.1531,0.1588,0.1632,0.1265,0.126,0.147,0.147,0.147,0.1469,0.1469,0.1469,-0.0759,-0.0832,-0.0869,-0.0929,-0.0948,-0.0875,-0.0813,-0.0659,-0.0514,-0.023,0.0009,0.0178,0.0637,0.1327,0.1763,0.1808,0.198,0.1967,0.2058,0.1805,0.1772,0.174,0.175,0.2058,0.2059,0.2418,0.2421,0.2424]}],[{"header":{"parameterUnit":"m.s-1","parameterCategory":2,"la1":30.2991,"la2":30.254,"lo1":-89.0895,"lo2":-89.0444,"dy":0.0017,"dx":0.0017,"nx":28,"ny":28,"refTime":"2025-02-07T09:00:00:Z","depth":"2","parameterNumber":2,"parameterNumberName":"U-component_of_CURRENTS"},"data":[0,0,0,0,0,0,0,0,0,0,0,0,0,0,0,0,0,0,0,0,0,0,0,0,0,0,0,0,0,0,0,0,0,0,0,0,0,0,0,0,0,0,0,0,0,0,0,0,0,0,0,0,0,0,0,0,0,0,-0.2041,-0.2041,0,-0.2081,-0.2081,-0.2082,-0.2075,-0.2074,-0.2074,-0.2073,-0.2081,-0.2081,-0.2082,0,0,0,0,0,0,0,0,0,0,0,0,0,-0.1953,-0.1954,-0.2041,-0.2041,-0.2042,-0.2081,-0.2081,-0.2082,-0.2075,-0.2074,-0.2073,-0.2073,-0.208,-0.2081,-0.2082,0,0,0,0,0,0,0,0,0,0,0,0,0,-0.199,-0.1955,-0.2041,-0.2045,-0.2046,-0.2081,-0.2081,-0.2082,-0.2075,-0.2074,-0.2073,-0.2073,-0.208,-0.2081,-0.2082,-0.2103,0,0,-0.2085,-0.2086,0,0,0,0,0,0,0,0,-0.1988,-0.1993,-0.2044,-0.2045,-0.2046,-0.2074,-0.2053,-0.2088,-0.2075,-0.2061,-0.2073,-0.2072,-0.2078,-0.2079,-0.2085,-0.2103,-0.2104,-0.2085,-0.2086,-0.2086,-0.2087,0,0,0,0,0,0,0,-0.1985,-0.1991,-0.2054,-0.2045,-0.2046,-0.2044,-0.2048,-0.206,-0.2071,-0.2062,-0.2063,-0.2071,-0.2078,-0.2084,-0.2085,-0.2104,-0.2085,-0.2086,-0.2087,-0.2087,-0.213,-0.213,0,0,0,0,0,0,-0.1986,-0.1989,-0.2053,-0.2056,-0.2017,-0.2046,-0.2051,-0.2064,-0.2071,-0.2073,-0.2072,-0.2071,-0.2083,-0.2084,-0.2085,-0.2108,-0.2086,-0.2087,-0.2088,-0.2129,-0.213,-0.2131,0,0,0,0,0,0,-0.1984,-0.1992,-0.2051,-0.2024,-0.2032,-0.2049,-0.2063,-0.2065,-0.2074,-0.2079,-0.2079,-0.2079,-0.2082,-0.2084,-0.2099,-0.2108,-0.2088,-0.2089,-0.2129,-0.213,-0.213,-0.2155,0,0,0,0,0,0,-0.1982,-0.1991,-0.1997,-0.2025,-0.2034,-0.2075,-0.2065,-0.2067,-0.2081,-0.208,-0.2086,-0.2085,-0.2082,-0.2098,-0.21,-0.2109,-0.2089,-0.2128,-0.2129,-0.213,-0.2153,-0.2157,-0.2159,0,0,0,0,0,-0.1979,-0.1993,-0.1998,-0.2005,-0.2044,-0.2076,-0.208,-0.2087,-0.2083,-0.2091,-0.2093,-0.2085,-0.2105,-0.2099,-0.2102,-0.2111,-0.2127,-0.2129,-0.213,-0.2152,-0.2156,-0.2159,0,0,0,0,0,0,-0.1956,-0.1994,-0.2,-0.2024,-0.2049,-0.2075,-0.2083,-0.2092,-0.2102,-0.2099,-0.2098,-0.2099,-0.2114,-0.2112,-0.2105,-0.2126,-0.2113,-0.2115,-0.2129,-0.2133,-0.2136,-0.2134,-0.209,0,0,0,0,0,-0.1956,-0.1974,-0.2011,-0.2028,-0.2042,-0.2064,-0.2077,-0.2086,-0.2102,-0.2105,-0.2111,-0.2114,-0.2122,-0.2126,-0.2133,-0.215,-0.2137,-0.2156,-0.2158,-0.2161,-0.2161,-0.2154,-0.2156,-0.2135,-0.2135,-0.2135,0,0,-0.195,-0.1974,-0.1983,-0.2024,-0.2041,-0.2068,-0.2069,-0.2093,-0.2112,-0.2105,-0.2125,-0.2127,-0.2129,-0.2145,-0.2151,-0.2144,-0.2159,-0.2162,-0.2164,-0.2163,-0.2155,-0.2157,-0.2159,-0.2135,-0.2135,-0.2135,0,0,-0.1952,-0.1972,-0.1989,-0.2015,-0.2051,-0.2069,-0.2079,-0.2112,-0.212,-0.2146,-0.2142,-0.2152,-0.2166,-0.2169,-0.2172,-0.2197,-0.2176,-0.2196,-0.2209,-0.2203,-0.2204,-0.2205,-0.2186,-0.2185,-0.2196,-0.2196,-0.2197,0,-0.1942,-0.1972,-0.1998,-0.2026,-0.2046,-0.2072,-0.2097,-0.2117,-0.2148,-0.2157,-0.2153,-0.2174,-0.2178,-0.2194,-0.2201,-0.2203,-0.2189,-0.2196,-0.2206,-0.2207,-0.2207,-0.2187,-0.2186,-0.2198,-0.2198,-0.2198,-0.2197,0,-0.1959,-0.1986,-0.2,-0.2042,-0.2068,-0.2094,-0.213,-0.2152,-0.2165,-0.218,-0.22,-0.2206,-0.2215,-0.2219,-0.2218,-0.2229,-0.2213,-0.2211,-0.2196,-0.2211,-0.2189,-0.2187,-0.22,-0.2199,-0.2199,-0.2199,0,0,-0.1927,-0.1998,-0.2001,-0.2024,-0.2079,-0.2102,-0.2138,-0.2175,-0.2193,-0.2215,-0.2231,-0.2248,-0.2246,-0.2249,-0.2248,-0.2245,-0.224,-0.2231,-0.223,-0.2209,-0.2212,-0.214,-0.2131,-0.2236,-0.2236,-0.2236,-0.2193,0,-0.193,-0.198,-0.2016,-0.2058,-0.2087,-0.2127,-0.2159,-0.2194,-0.2217,-0.2239,-0.2247,-0.226,-0.2258,-0.226,-0.2259,-0.2249,-0.2237,-0.2251,-0.2203,-0.2201,-0.2133,-0.2127,-0.1977,-0.192,-0.2191,-0.2191,-0.219,0,-0.1931,-0.1965,-0.2009,-0.2071,-0.2086,-0.2114,-0.2162,-0.2195,-0.2235,-0.2251,-0.2267,-0.2273,-0.2283,-0.2272,-0.2257,-0.2264,-0.2238,-0.2225,-0.2223,-0.2144,-0.2125,-0.195,-0.1907,-0.2187,-0.2188,-0.2188,-0.2188,0,-0.1888,-0.1957,-0.1989,-0.2011,-0.2086,-0.2106,-0.214,-0.219,-0.2216,-0.2252,-0.2267,-0.2281,-0.2282,-0.2265,-0.2241,-0.2248,-0.221,-0.2215,-0.2122,-0.2117,-0.1974,-0.1955,-0.219,-0.2191,-0.2191,-0.2191,-0.2191,0,-0.1875,-0.1897,-0.1971,-0.1987,-0.202,-0.208,-0.2112,-0.2151,-0.2201,-0.222,-0.2262,-0.2268,-0.2279,-0.2264,-0.2239,-0.2169,-0.2206,-0.2116,-0.2099,-0.1977,-0.196,-0.2184,-0.2183,-0.2189,-0.2189,-0.219,-0.219,0,-0.182,-0.1873,-0.1909,-0.1982,-0.2001,-0.202,-0.209,-0.2111,-0.2171,-0.2195,-0.2205,-0.2253,-0.2229,-0.2223,-0.2191,-0.2152,-0.2103,-0.2065,-0.1916,-0.1881,-0.2014,-0.2016,-0.1959,-0.1956,-0.1953,-0.1951,-0.1949,0,-0.1797,-0.1811,-0.1883,-0.1897,-0.1926,-0.1968,-0.1993,-0.2075,-0.2099,-0.2173,-0.2172,-0.2181,-0.215,-0.2085,-0.2019,-0.1944,-0.202,-0.1774,-0.176,-0.2001,-0.199,-0.1996,-0.2001,-0.1579,-0.1575,-0.1571,-0.1568,0,-0.1735,-0.1762,-0.1787,-0.1821,-0.1848,-0.1884,-0.1928,-0.1945,-0.2031,-0.2052,-0.2059,-0.2042,-0.1993,-0.1848,-0.1772,-0.1715,-0.1777,-0.1693,-0.1972,-0.1666,-0.1641,-0.1632,-0.1649,-0.1534,-0.1537,-0.154,-0.1542,-0.1543,-0.1671,-0.1672,-0.1703,-0.1722,-0.1754,-0.1766,-0.1744,-0.1802,-0.1813,-0.1807,-0.1882,-0.18,-0.1787,-0.1578,-0.149,-0.1424,-0.1548,-0.1486,-0.1499,-0.1515,-0.1484,-0.1456,-0.1308,-0.131,-0.1311,-0.1313,-0.1314,0,-0.1577,-0.1586,-0.16,-0.1613,-0.1591,-0.165,-0.1665,-0.1615,-0.1571,-0.1604,-0.1578,-0.1411,-0.1314,-0.1303,-0.1144,-0.1113,-0.111,-0.1071,-0.1073,-0.1107,-0.1137,-0.1088,-0.0806,-0.0805,-0.0803,-0.0802,0,0,-0.1527,-0.1497,-0.1502,-0.1432,-0.1434,-0.1347,-0.1318,-0.128,-0.1264,-0.1191,-0.1153,-0.124,-0.1262,-0.104,-0.0984,-0.0867,-0.0976,-0.082,-0.1227,-0.1264,-0.1292,-0.1374,-0.1336,0,0,0,0,0]},{"header":{"parameterUnit":"m.s-1","parameterCategory":2,"la1":30.2991,"la2":30.254,"lo1":-89.0895,"lo2":-89.0444,"dy":0.0017,"dx":0.0017,"nx":28,"ny":28,"refTime":"2025-02-07T09:00:00:Z","depth":"2","parameterNumber":3,"parameterNumberName":"V-component_of_CURRENTS"},"data":[0,0,0,0,0,0,0,0,0,0,0,0,0,0,0,0,0,0,0,0,0,0,0,0,0,0,0,0,0,0,0,0,0,0,0,0,0,0,0,0,0,0,0,0,0,0,0,0,0,0,0,0,0,0,0,0,0,0,-0.0222,-0.0221,0,-0.0165,-0.0164,-0.0163,-0.0123,-0.0123,-0.0123,-0.0122,-0.0021,-0.0018,-0.0016,0,0,0,0,0,0,0,0,0,0,0,0,0,-0.0249,-0.0249,-0.0222,-0.0221,-0.0221,-0.0165,-0.0164,-0.0163,-0.0123,-0.0123,-0.0123,-0.0122,-0.0021,-0.0018,-0.0015,0,0,0,0,0,0,0,0,0,0,0,0,0,-0.0218,-0.0249,-0.0222,-0.0195,-0.0192,-0.0165,-0.0164,-0.0163,-0.0123,-0.0123,-0.0123,-0.0122,-0.0022,-0.0019,-0.0015,0.0002,0,0,-0.0003,-0.0002,0,0,0,0,0,0,0,0,-0.022,-0.0217,-0.0199,-0.0197,-0.0193,-0.0152,-0.0136,-0.0106,-0.0123,-0.0148,-0.0122,-0.0122,-0.0061,-0.0054,-0.0043,0.0007,0.0011,-0.0003,-0.0001,0.0001,0.0002,0,0,0,0,0,0,0,-0.0222,-0.0219,-0.0198,-0.0199,-0.0195,-0.0169,-0.0165,-0.013,-0.0105,-0.0146,-0.0143,-0.0139,-0.0059,-0.0047,-0.004,0.0013,-0.0003,0.0,0.0002,0.0004,0.0102,0.0102,0,0,0,0,0,0,-0.0234,-0.0221,-0.02,-0.0196,-0.0207,-0.0169,-0.0164,-0.0164,-0.0107,-0.0098,-0.0139,-0.0137,-0.0054,-0.0045,-0.0037,-0.0011,0.0001,0.0004,0.0006,0.0101,0.0102,0.0102,0,0,0,0,0,0,-0.0235,-0.0233,-0.0202,-0.0208,-0.0202,-0.017,-0.017,-0.0163,-0.0151,-0.0102,-0.0092,-0.0133,-0.0053,-0.0042,-0.0006,-0.0007,0.0006,0.0009,0.0101,0.0101,0.0102,0.0038,0,0,0,0,0,0,-0.0236,-0.0234,-0.024,-0.0209,-0.0203,-0.0193,-0.017,-0.0163,-0.0149,-0.0146,-0.0094,-0.0084,-0.0052,-0.0012,-0.0002,-0.0002,0.0012,0.01,0.0101,0.0102,0.004,0.0037,0.0034,0,0,0,0,0,-0.0238,-0.0251,-0.024,-0.0238,-0.0211,-0.0194,-0.0188,-0.0162,-0.0149,-0.0148,-0.0109,-0.0085,-0.0,-0.0008,0.0003,0.0004,0.01,0.0101,0.0102,0.0041,0.0037,0.0034,0,0,0,0,0,0,-0.0267,-0.0247,-0.0235,-0.0242,-0.0222,-0.0188,-0.0186,-0.0166,-0.0135,-0.0131,-0.0082,-0.007,-0.0039,-0.0006,-0.0016,0.0036,0.0054,0.0057,0.0005,0.0001,-0.0002,-0.0017,0.0015,0,0,0,0,0,-0.0277,-0.028,-0.0253,-0.0259,-0.0251,-0.0218,-0.0208,-0.0191,-0.0159,-0.0146,-0.0108,-0.0064,-0.0027,-0.0005,0.0031,0.0059,0.0095,0.0069,0.0066,0.0063,0.0059,0.0112,0.0112,0.0105,0.0104,0.0104,0,0,-0.0289,-0.0279,-0.0281,-0.0265,-0.0247,-0.0244,-0.0211,-0.0202,-0.0194,-0.0139,-0.0116,-0.0076,-0.0022,0.0007,0.0024,0.0035,0.0085,0.0064,0.0061,0.0059,0.0113,0.0113,0.0114,0.0105,0.0105,0.0105,0,0,-0.032,-0.0308,-0.0321,-0.0308,-0.0288,-0.0266,-0.0265,-0.0232,-0.0212,-0.0186,-0.0144,-0.0104,-0.0049,-0.001,0.0017,0.0021,0.0064,0.0033,0.0006,0.0056,0.0057,0.0058,0.0102,0.0108,0.0033,0.0033,0.0033,0,-0.0336,-0.0348,-0.0321,-0.0329,-0.0323,-0.028,-0.0289,-0.0263,-0.0221,-0.0203,-0.0187,-0.0099,-0.0057,-0.0012,-0.0013,0.0012,0.0045,0.0012,0.0051,0.0053,0.0055,0.01,0.0107,0.003,0.003,0.0031,0.0031,0,-0.0374,-0.0382,-0.0388,-0.0383,-0.0371,-0.0373,-0.0336,-0.0317,-0.0286,-0.0254,-0.0205,-0.0144,-0.009,-0.007,-0.0041,-0.0003,0.0016,0.0036,0.0054,0.0051,0.01,0.0108,0.0026,0.0027,0.0028,0.0029,0,0,-0.0414,-0.0416,-0.0418,-0.0426,-0.0401,-0.0397,-0.0381,-0.0351,-0.0338,-0.0286,-0.0258,-0.0191,-0.0152,-0.0118,-0.007,-0.0027,0.0015,0.0003,0.0007,0.0036,0.0122,0.0143,0.0155,0.0039,0.004,0.0041,0.0148,0,-0.0451,-0.0485,-0.0468,-0.049,-0.0503,-0.046,-0.0448,-0.0413,-0.0369,-0.033,-0.0255,-0.0211,-0.0171,-0.0144,-0.0095,-0.0011,0.0035,-0.0016,0.0131,0.0135,0.0145,0.0165,0.0141,0.0235,0.0156,0.0158,0.0159,0,-0.0493,-0.051,-0.0545,-0.0547,-0.0547,-0.0549,-0.0519,-0.0502,-0.0432,-0.0396,-0.0333,-0.0269,-0.0193,-0.016,-0.0021,-0.0057,0.0024,0.0089,0.0095,0.0142,0.0172,0.0228,0.0254,0.0173,0.0172,0.0171,0.017,0,-0.0541,-0.0561,-0.0593,-0.0595,-0.0588,-0.0589,-0.0577,-0.0524,-0.0507,-0.0432,-0.0406,-0.0305,-0.0246,-0.0139,-0.0002,-0.001,0.0151,0.0163,0.0261,0.0264,0.0287,0.0289,0.0262,0.0262,0.0261,0.0261,0.0261,0,-0.0591,-0.0613,-0.0621,-0.064,-0.067,-0.064,-0.0648,-0.0617,-0.0566,-0.0542,-0.0444,-0.0395,-0.0239,-0.0124,-0.0009,0.0154,0.0153,0.0262,0.0296,0.0265,0.0264,0.0244,0.0241,0.0265,0.0264,0.0264,0.0263,0,-0.0641,-0.0645,-0.0684,-0.0694,-0.0698,-0.0718,-0.0708,-0.0705,-0.0649,-0.0612,-0.0589,-0.0454,-0.03,-0.014,0.0051,0.0149,0.0298,0.0356,0.0306,0.0332,0.0377,0.0369,0.0475,0.0476,0.0478,0.0479,0.048,0,-0.0671,-0.0698,-0.0734,-0.0761,-0.077,-0.0789,-0.0799,-0.0755,-0.0743,-0.0643,-0.0625,-0.047,-0.0344,-0.006,0.0138,0.0351,0.035,0.0448,0.0432,0.0378,0.04,0.039,0.0381,0.0441,0.0441,0.0442,0.0442,0,-0.0727,-0.0738,-0.0772,-0.0832,-0.0859,-0.0882,-0.0886,-0.0888,-0.082,-0.0764,-0.0655,-0.0544,-0.0268,-0.0029,0.024,0.0359,0.0409,0.0465,0.0441,0.0383,0.0353,0.0372,0.0363,0.0447,0.0446,0.0446,0.0446,0.0446,-0.0762,-0.0802,-0.0846,-0.0899,-0.0934,-0.096,-0.0977,-0.0946,-0.0908,-0.0796,-0.0683,-0.0486,-0.0265,0.0126,0.0312,0.0483,0.0478,0.0524,0.052,0.0516,0.0485,0.0458,0.0566,0.0567,0.0567,0.0567,0.0567,0,-0.0805,-0.0847,-0.0907,-0.0967,-0.1014,-0.1012,-0.1024,-0.1012,-0.0956,-0.0792,-0.0651,-0.0389,-0.0107,0.012,0.0395,0.0555,0.0538,0.0578,0.0523,0.0518,0.0514,0.048,0.0563,0.0563,0.0563,0.0564,0,0,-0.0828,-0.0895,-0.0927,-0.1016,-0.1057,-0.1099,-0.1104,-0.1053,-0.0946,-0.0779,-0.0601,-0.0372,-0.0095,0.0098,0.0298,0.044,0.0436,0.0452,0.0439,0.0345,0.0339,0.0468,0.0409,0,0,0,0,0]}],[{"header":{"parameterUnit":"m.s-1","parameterCategory":2,"la1":30.2991,"la2":30.254,"lo1":-89.0895,"lo2":-89.0444,"dy":0.0017,"dx":0.0017,"nx":28,"ny":28,"refTime":"2025-02-07T09:00:00:Z","depth":"4","parameterNumber":2,"parameterNumberName":"U-component_of_CURRENTS"},"data":[0,0,0,0,0,0,0,0,0,0,0,0,0,0,0,0,0,0,0,0,0,0,0,0,0,0,0,0,0,0,0,0,0,0,0,0,0,0,0,0,0,0,0,0,0,0,0,0,0,0,0,0,0,0,0,0,0,0,-0.1412,-0.1412,0,-0.1452,-0.1453,-0.1453,-0.1468,-0.1468,-0.1468,-0.1469,-0.1518,-0.1519,-0.152,0,0,0,0,0,0,0,0,0,0,0,0,0,-0.1337,-0.1338,-0.1411,-0.1412,-0.1413,-0.1452,-0.1453,-0.1453,-0.1468,-0.1468,-0.1469,-0.1469,-0.1518,-0.1519,-0.1521,0,0,0,0,0,0,0,0,0,0,0,0,0,-0.1371,-0.1339,-0.1411,-0.1427,-0.1429,-0.1452,-0.1453,-0.1453,-0.1468,-0.1468,-0.1469,-0.1469,-0.1517,-0.1519,-0.1521,-0.153,0,0,-0.1526,-0.1527,0,0,0,0,0,0,0,0,-0.1369,-0.1373,-0.1424,-0.1426,-0.1428,-0.1457,-0.1445,-0.148,-0.1468,-0.1451,-0.1469,-0.1469,-0.15,-0.1503,-0.1507,-0.1532,-0.1534,-0.1527,-0.1528,-0.1529,-0.1529,0,0,0,0,0,0,0,-0.1366,-0.1371,-0.1425,-0.1425,-0.1427,-0.1429,-0.1433,-0.1451,-0.1473,-0.1453,-0.1454,-0.1462,-0.1501,-0.1505,-0.1509,-0.1535,-0.1527,-0.1528,-0.1529,-0.153,-0.1646,-0.1648,0,0,0,0,0,0,-0.1366,-0.1369,-0.1424,-0.1427,-0.1401,-0.143,-0.1435,-0.1446,-0.1472,-0.1477,-0.1462,-0.1463,-0.1502,-0.1506,-0.151,-0.1583,-0.1529,-0.153,-0.1531,-0.1644,-0.1646,-0.1649,0,0,0,0,0,0,-0.1365,-0.1371,-0.1423,-0.14,-0.1407,-0.1432,-0.1443,-0.1447,-0.1477,-0.148,-0.1484,-0.1492,-0.1502,-0.1508,-0.1557,-0.1583,-0.1531,-0.1533,-0.1642,-0.1645,-0.1648,-0.169,0,0,0,0,0,0,-0.1362,-0.137,-0.1388,-0.1401,-0.1409,-0.1456,-0.1444,-0.1448,-0.1481,-0.1483,-0.1507,-0.151,-0.1503,-0.1555,-0.1559,-0.1585,-0.1534,-0.1639,-0.1643,-0.1647,-0.1686,-0.1694,-0.1701,0,0,0,0,0,-0.136,-0.1378,-0.1389,-0.1396,-0.1429,-0.1458,-0.1462,-0.1477,-0.1483,-0.1503,-0.1526,-0.151,-0.1581,-0.1558,-0.1563,-0.1589,-0.1638,-0.1642,-0.1646,-0.1683,-0.1693,-0.1701,0,0,0,0,0,0,-0.1354,-0.1382,-0.1394,-0.1421,-0.1449,-0.1461,-0.1483,-0.1495,-0.1528,-0.1537,-0.1537,-0.1543,-0.1594,-0.1594,-0.1568,-0.1636,-0.1606,-0.1612,-0.1633,-0.1642,-0.1649,-0.1638,-0.1536,0,0,0,0,0,-0.1362,-0.1385,-0.1412,-0.1437,-0.1454,-0.1475,-0.1493,-0.1507,-0.1532,-0.1547,-0.1566,-0.1589,-0.1612,-0.163,-0.1649,-0.1689,-0.1671,-0.1711,-0.1718,-0.1724,-0.1721,-0.1724,-0.173,-0.1663,-0.1663,-0.1663,0,0,-0.1367,-0.1386,-0.14,-0.1438,-0.1459,-0.1488,-0.1486,-0.1523,-0.1552,-0.1547,-0.1602,-0.1619,-0.163,-0.1673,-0.1695,-0.1678,-0.1735,-0.173,-0.1734,-0.1728,-0.1729,-0.1735,-0.174,-0.1666,-0.1666,-0.1665,0,0,-0.1378,-0.1408,-0.143,-0.1458,-0.1499,-0.1515,-0.1534,-0.1569,-0.1594,-0.1646,-0.1649,-0.1686,-0.1726,-0.1736,-0.1744,-0.1808,-0.1775,-0.182,-0.1846,-0.1849,-0.1854,-0.1858,-0.184,-0.1842,-0.1822,-0.1822,-0.1822,0,-0.1385,-0.1415,-0.1442,-0.1471,-0.1498,-0.1531,-0.1563,-0.1592,-0.1643,-0.1666,-0.1673,-0.1737,-0.1752,-0.1789,-0.1812,-0.1822,-0.181,-0.1807,-0.1856,-0.1859,-0.1863,-0.1843,-0.1845,-0.1824,-0.1824,-0.1824,-0.1824,0,-0.1404,-0.1442,-0.146,-0.1507,-0.154,-0.1576,-0.1619,-0.1663,-0.1698,-0.1721,-0.1781,-0.1804,-0.1836,-0.1853,-0.1852,-0.1889,-0.1868,-0.1863,-0.1825,-0.1871,-0.1849,-0.185,-0.1828,-0.1827,-0.1826,-0.1826,0,0,-0.1381,-0.1459,-0.1467,-0.1499,-0.1565,-0.1591,-0.1651,-0.1705,-0.1741,-0.1794,-0.1833,-0.1883,-0.1894,-0.1905,-0.1913,-0.1921,-0.1937,-0.1906,-0.1905,-0.1873,-0.193,-0.1798,-0.1786,-0.1939,-0.1939,-0.194,-0.1903,0,-0.1391,-0.1448,-0.1487,-0.1549,-0.1583,-0.1638,-0.1687,-0.1742,-0.1789,-0.1837,-0.1868,-0.1909,-0.1914,-0.1933,-0.1945,-0.1943,-0.1942,-0.1947,-0.1902,-0.1901,-0.1766,-0.1783,-0.1942,-0.1903,-0.1903,-0.1903,-0.1903,0,-0.1391,-0.1432,-0.1494,-0.1574,-0.1595,-0.164,-0.172,-0.1767,-0.1837,-0.1872,-0.1916,-0.1938,-0.1972,-0.1964,-0.1973,-0.1975,-0.1957,-0.1947,-0.1945,-0.1804,-0.177,-0.185,-0.1904,-0.1904,-0.1904,-0.1904,-0.1904,0,-0.1349,-0.1434,-0.1485,-0.1514,-0.1608,-0.1652,-0.1703,-0.178,-0.182,-0.1891,-0.192,-0.1963,-0.1983,-0.198,-0.1967,-0.1974,-0.1953,-0.1957,-0.1817,-0.1807,-0.1917,-0.1913,-0.195,-0.195,-0.195,-0.195,-0.195,0,-0.1329,-0.1372,-0.1476,-0.1502,-0.1564,-0.1637,-0.1703,-0.1759,-0.1832,-0.1863,-0.1931,-0.1945,-0.1989,-0.1984,-0.1968,-0.1881,-0.1951,-0.1812,-0.1787,-0.1937,-0.1936,-0.1917,-0.1914,-0.1949,-0.1949,-0.1949,-0.195,0,-0.127,-0.1341,-0.1403,-0.151,-0.1546,-0.1589,-0.1694,-0.1729,-0.1812,-0.1851,-0.1873,-0.1936,-0.192,-0.1933,-0.1919,-0.186,-0.1806,-0.1758,-0.1903,-0.1889,-0.166,-0.166,-0.1596,-0.1591,-0.1586,-0.1583,-0.158,0,-0.1242,-0.127,-0.1391,-0.1424,-0.1478,-0.1555,-0.1599,-0.1703,-0.1731,-0.1822,-0.1818,-0.1846,-0.1867,-0.173,-0.1768,-0.1707,-0.169,-0.1652,-0.1668,-0.1639,-0.1623,-0.163,-0.1635,-0.1573,-0.1572,-0.1571,-0.157,0,-0.118,-0.1236,-0.1284,-0.1354,-0.1412,-0.1468,-0.1537,-0.1545,-0.1644,-0.1741,-0.1705,-0.1684,-0.1658,-0.1633,-0.159,-0.1556,-0.1674,-0.1607,-0.1616,-0.1632,-0.1612,-0.1601,-0.1611,-0.1555,-0.1557,-0.1559,-0.156,0,-0.113,-0.1146,-0.1213,-0.1259,-0.1327,-0.1342,-0.1403,-0.1423,-0.1463,-0.1563,-0.1545,-0.1574,-0.1634,-0.1552,-0.1518,-0.1465,-0.1448,-0.1405,-0.1424,-0.1441,-0.1407,-0.136,-0.1194,0,0,0,0,0,-0.107,-0.1072,-0.1108,-0.1149,-0.1208,-0.124,-0.1336,-0.1396,-0.1494,-0.1424,-0.1479,-0.1444,-0.139,-0.1411,-0.1321,-0.1449,-0.1457,-0.134,-0.1419,-0.1474,-0.1491,-0.1465,0,0,0,0,0,0,-0.1028,-0.106,-0.1068,-0.1036,-0.1034,-0.1083,-0.1133,-0.1209,-0.1181,-0.1286,-0.126,-0.1342,-0.1308,-0.14,-0.1281,-0.1287,-0.1304,-0.137,-0.1365,-0.1464,-0.148,-0.1493,-0.1473,0,0,0,0,0]},{"header":{"parameterUnit":"m.s-1","parameterCategory":2,"la1":30.2991,"la2":30.254,"lo1":-89.0895,"lo2":-89.0444,"dy":0.0017,"dx":0.0017,"nx":28,"ny":28,"refTime":"2025-02-07T09:00:00:Z","depth":"4","parameterNumber":3,"parameterNumberName":"V-component_of_CURRENTS"},"data":[0,0,0,0,0,0,0,0,0,0,0,0,0,0,0,0,0,0,0,0,0,0,0,0,0,0,0,0,0,0,0,0,0,0,0,0,0,0,0,0,0,0,0,0,0,0,0,0,0,0,0,0,0,0,0,0,0,0,-0.0228,-0.0228,0,-0.0206,-0.0206,-0.0205,-0.0194,-0.0194,-0.0194,-0.0194,-0.0138,-0.0136,-0.0135,0,0,0,0,0,0,0,0,0,0,0,0,0,-0.0226,-0.0226,-0.0228,-0.0228,-0.0227,-0.0206,-0.0206,-0.0205,-0.0194,-0.0194,-0.0194,-0.0195,-0.0138,-0.0137,-0.0135,0,0,0,0,0,0,0,0,0,0,0,0,0,-0.0217,-0.0226,-0.0228,-0.022,-0.0219,-0.0206,-0.0206,-0.0205,-0.0194,-0.0194,-0.0194,-0.0195,-0.0139,-0.0137,-0.0134,-0.0118,0,0,-0.0127,-0.0126,0,0,0,0,0,0,0,0,-0.0218,-0.0217,-0.0221,-0.022,-0.022,-0.0204,-0.0184,-0.0175,-0.0194,-0.0203,-0.0194,-0.0195,-0.0157,-0.0153,-0.0148,-0.0115,-0.0113,-0.0127,-0.0126,-0.0125,-0.0124,0,0,0,0,0,0,0,-0.0218,-0.0218,-0.0218,-0.0221,-0.022,-0.0206,-0.0205,-0.0182,-0.0178,-0.0202,-0.0201,-0.02,-0.0156,-0.0151,-0.0147,-0.0112,-0.0127,-0.0125,-0.0123,-0.0123,-0.0034,-0.0033,0,0,0,0,0,0,-0.0224,-0.0218,-0.0219,-0.0218,-0.022,-0.0206,-0.0205,-0.0208,-0.0179,-0.0176,-0.02,-0.02,-0.0155,-0.015,-0.0145,-0.0121,-0.0125,-0.0122,-0.0121,-0.0035,-0.0033,-0.0032,0,0,0,0,0,0,-0.0224,-0.0225,-0.022,-0.0218,-0.0216,-0.0206,-0.021,-0.0208,-0.0204,-0.0178,-0.0174,-0.0199,-0.0154,-0.0148,-0.0121,-0.0119,-0.0121,-0.0119,-0.0036,-0.0034,-0.0033,-0.0075,0,0,0,0,0,0,-0.0224,-0.0225,-0.0231,-0.0219,-0.0217,-0.0217,-0.021,-0.0207,-0.0203,-0.0203,-0.0176,-0.0171,-0.0154,-0.0125,-0.0119,-0.0116,-0.0117,-0.0037,-0.0035,-0.0033,-0.0075,-0.0075,-0.0076,0,0,0,0,0,-0.0225,-0.0235,-0.0232,-0.0232,-0.0226,-0.0217,-0.0215,-0.0207,-0.0203,-0.0203,-0.018,-0.0172,-0.0109,-0.0122,-0.0116,-0.0112,-0.0038,-0.0036,-0.0034,-0.0075,-0.0075,-0.0075,0,0,0,0,0,0,-0.024,-0.0235,-0.0231,-0.024,-0.0231,-0.0216,-0.0218,-0.0209,-0.0191,-0.0191,-0.0164,-0.0157,-0.0132,-0.011,-0.0125,-0.0077,-0.007,-0.0066,-0.0103,-0.0104,-0.0104,-0.0121,-0.0115,0,0,0,0,0,-0.0246,-0.0253,-0.0241,-0.0249,-0.0245,-0.0231,-0.0227,-0.0221,-0.0203,-0.0197,-0.0175,-0.0145,-0.0117,-0.0102,-0.0076,-0.0052,-0.0026,-0.0041,-0.0041,-0.0042,-0.0049,0.0,0.0003,-0.0025,-0.0025,-0.0026,0,0,-0.0255,-0.0253,-0.0257,-0.0252,-0.0245,-0.0245,-0.0229,-0.0227,-0.0224,-0.0192,-0.0179,-0.0149,-0.011,-0.0085,-0.0071,-0.0067,-0.0019,-0.0039,-0.004,-0.0047,0.0003,0.0005,0.0007,-0.0024,-0.0024,-0.0024,0,0,-0.0276,-0.0273,-0.0285,-0.0279,-0.0271,-0.026,-0.026,-0.0243,-0.0233,-0.0215,-0.0187,-0.0154,-0.0116,-0.0086,-0.0065,-0.0048,-0.0024,-0.0036,-0.0054,-0.0007,-0.0005,-0.0003,0.0032,0.0038,-0.0036,-0.0036,-0.0036,0,-0.0288,-0.0301,-0.0286,-0.0294,-0.0293,-0.0268,-0.0277,-0.0261,-0.0237,-0.0224,-0.0216,-0.0147,-0.0116,-0.0077,-0.0072,-0.0051,-0.0025,-0.0062,-0.001,-0.0007,-0.0004,0.0031,0.0038,-0.0038,-0.0037,-0.0037,-0.0037,0,-0.0314,-0.0325,-0.033,-0.0332,-0.0327,-0.0331,-0.0308,-0.0296,-0.0278,-0.0256,-0.0216,-0.0169,-0.0127,-0.0108,-0.0089,-0.0048,-0.0037,-0.002,-0.0017,-0.0004,0.0033,0.004,-0.004,-0.0039,-0.0039,-0.0038,0,0,-0.034,-0.0349,-0.0352,-0.0361,-0.0349,-0.0349,-0.0338,-0.0319,-0.0311,-0.0272,-0.0252,-0.0195,-0.0165,-0.0139,-0.01,-0.0061,-0.0017,-0.0039,-0.0035,-0.0019,0.0078,0.006,0.0067,0.0006,0.0008,0.0009,0.0094,0,-0.0366,-0.0395,-0.0387,-0.0408,-0.0419,-0.0393,-0.0387,-0.0363,-0.0333,-0.0304,-0.0243,-0.0209,-0.0177,-0.0156,-0.0111,-0.0041,0.0001,-0.0043,0.0076,0.008,0.0051,0.0075,0.0012,0.01,0.0101,0.0103,0.0104,0,-0.0393,-0.041,-0.0441,-0.045,-0.0452,-0.0459,-0.0443,-0.0432,-0.0379,-0.0354,-0.0303,-0.0253,-0.0186,-0.0161,-0.004,-0.0071,-0.0004,0.0051,0.0056,0.0057,0.0076,0.0089,0.0118,0.0117,0.0116,0.0115,0.0114,0,-0.0422,-0.0445,-0.0474,-0.0478,-0.0483,-0.049,-0.0486,-0.045,-0.044,-0.0383,-0.0364,-0.0276,-0.0231,-0.0135,-0.0025,-0.003,0.0106,0.012,0.0171,0.017,0.0177,0.0173,0.0208,0.0208,0.0208,0.0208,0.0207,0,-0.045,-0.0473,-0.0495,-0.0512,-0.0544,-0.0529,-0.0543,-0.0523,-0.0489,-0.0472,-0.0394,-0.0356,-0.0223,-0.0129,-0.003,0.0089,0.0109,0.0168,0.0193,0.0158,0.0152,0.0182,0.0178,0.0211,0.021,0.021,0.0209,0,-0.0475,-0.049,-0.0528,-0.0551,-0.0562,-0.0585,-0.0595,-0.0596,-0.0558,-0.0532,-0.0515,-0.0409,-0.0285,-0.0153,0.001,0.0077,0.0197,0.0237,0.018,0.0201,0.0231,0.0224,0.03,0.03,0.0301,0.0301,0.0301,0,-0.049,-0.0514,-0.0566,-0.0597,-0.0614,-0.0642,-0.066,-0.0637,-0.063,-0.056,-0.0544,-0.0428,-0.0343,-0.0123,0.0008,0.0193,0.0217,0.027,0.0256,0.0224,0.0242,0.0234,0.0227,0.0301,0.0301,0.0301,0.0301,0,-0.0517,-0.0541,-0.0574,-0.0641,-0.0678,-0.0709,-0.0726,-0.0724,-0.0681,-0.0653,-0.0549,-0.0428,-0.029,-0.0122,0.0019,0.0151,0.0229,0.0272,0.0273,0.026,0.0226,0.0241,0.0234,0.0301,0.0301,0.0301,0.0301,0,-0.0537,-0.0571,-0.0622,-0.0674,-0.0728,-0.0756,-0.076,-0.0732,-0.0712,-0.0623,-0.059,-0.0429,-0.0332,-0.0143,-0.0011,0.0112,0.0143,0.0174,0.0181,0.0182,0.0116,0.0054,0.01,0,0,0,0,0,-0.0551,-0.0591,-0.0648,-0.0706,-0.0761,-0.0785,-0.0794,-0.0782,-0.074,-0.067,-0.0624,-0.0486,-0.0276,-0.0181,-0.0058,-0.0026,0.0146,0.0119,0.0181,0.0304,0.0303,0.0244,0,0,0,0,0,0,-0.0562,-0.0621,-0.0649,-0.072,-0.0763,-0.0811,-0.0815,-0.0787,-0.0732,-0.0672,-0.0553,-0.0476,-0.0269,-0.0347,-0.0062,-0.0025,0.0026,0.0223,0.0225,0.0304,0.0304,0.0303,0.0242,0,0,0,0,0]}]]